DW6417 Weather Reports


Display with metric or nautical units.
time (UTC)temp
F
wind
direction
speed
MPH
gust
MPH
rain 1hr
in
rain 24hr
in
rain mn
in
humidity
%
barometer
mb
20260901065711 62 269 3.0 10.0 0.00 0.08 0.00 89 1017.2
20260901064711 61 253 3.0 7.0 0.00 0.08 0.00 90 1017.1
20260901062711 61 263 2.0 4.0 0.00 0.08 0.00 90 1017.1
20260901061711 61 205 2.0 6.0 0.00 0.08 0.00 90 1017.1
20260901060711 60 222 2.0 4.0 0.00 0.08 0.00 90 1016.8
20260901055712 60 232 2.0 5.0 0.00 0.08 0.00 91 1016.8
20260901054711 60 214 3.0 7.0 0.00 0.08 0.00 91 1016.8
20260901052712 60 251 3.0 6.0 0.00 0.08 0.00 91 1016.7
20260901045712 59 253 3.0 5.0 0.00 0.08 0.00 91 1016.5
20260901043712 58 232 2.0 5.0 0.00 0.08 0.00 90 1016.2
20260901042713 58 217 2.0 4.0 0.00 0.08 0.00 90 1016.0
20260901041712 58 210 1.0 3.0 0.00 0.08 0.00 90 1016.0
20260901040712 59 210 1.0 4.0 0.00 0.08 0.00 90 1016.0
20260901035712 58 247 1.0 3.0 0.00 0.08 0.00 90 1016.0
20260901034708 58 240 0.0 2.0 0.00 0.08 0.00 89 1015.9
20260901032709 59 240 1.0 2.0 0.00 0.08 0.00 88 1015.8
20260901031708 59 240 1.0 3.0 0.00 0.08 0.00 88 1015.8
20260901030709 59 240 1.0 3.0 0.00 0.08 0.00 88 1015.6
20260901025708 60 241 2.0 4.0 0.00 0.08 0.00 88 1015.7
20260901024708 60 242 2.0 8.0 0.00 0.08 0.00 88 1015.7
20260901023709 60 242 2.0 4.0 0.00 0.08 0.00 88 1015.6
20260901022709 60 244 2.0 6.0 0.00 0.08 0.00 88 1015.5
20260901021709 60 257 2.0 5.0 0.00 0.08 0.00 88 1015.6
20260901020709 60 224 2.0 5.0 0.00 0.08 0.00 88 1015.6
20260901015709 60 257 2.0 7.0 0.00 0.08 0.00 88 1015.6
20260901013709 60 238 5.0 10.0 0.00 0.08 0.00 88 1015.5
20260901012709 60 246 3.0 7.0 0.00 0.08 0.00 88 1015.6
20260901011709 60 247 3.0 8.0 0.00 0.08 0.00 87 1015.4
20260901005709 60 241 3.0 6.0 0.00 0.08 0.00 87 1015.5
20260901004709 60 221 2.0 4.0 0.00 0.08 0.00 87 1015.3
20260901003709 60 229 2.0 5.0 0.00 0.08 0.00 87 1015.5
20260901002709 60 241 3.0 5.0 0.00 0.08 0.00 86 1015.5
20260901001709 60 256 3.0 6.0 0.00 0.08 0.00 86 1015.4
20260901000709 60 238 3.0 5.0 0.00 0.08 0.00 86 1015.3
20260831235709 60 230 3.0 5.0 0.00 0.08 0.00 86 1015.3
20260831234709 60 241 2.0 5.0 0.00 0.08 0.00 85 1015.4
20260831233709 60 242 2.0 5.0 0.00 0.08 0.00 85 1015.2
20260831231709 60 234 2.0 4.0 0.00 0.08 0.00 83 1015.3
20260831225710 61 242 2.0 5.0 0.00 0.08 0.00 82 1015.3
20260831224709 61 253 3.0 7.0 0.00 0.08 0.00 82 1015.2
20260831222710 61 234 3.0 8.0 0.00 0.08 0.00 80 1015.1
20260831220710 61 254 3.0 6.0 0.00 0.08 0.00 79 1014.9
20260831215710 61 243 3.0 6.0 0.00 0.08 0.08 79 1015.0
20260831214710 61 252 2.0 4.0 0.00 0.08 0.08 79 1014.9
20260831213710 61 275 2.0 7.0 0.00 0.08 0.08 78 1014.9
20260831212710 61 219 2.0 5.0 0.00 0.08 0.08 78 1014.8
20260831211710 61 228 2.0 4.0 0.00 0.08 0.08 77 1014.8
20260831210710 61 228 2.0 5.0 0.00 0.08 0.08 76 1014.6
20260831205710 62 243 1.0 4.0 0.00 0.08 0.08 75 1014.6
20260831204710 62 243 1.0 3.0 0.00 0.08 0.08 74 1014.5
20260831203710 62 243 1.0 4.0 0.00 0.08 0.08 73 1014.5
20260831202710 62 243 3.0 5.0 0.00 0.08 0.08 73 1014.4
20260831201712 62 244 3.0 6.0 0.00 0.08 0.08 73 1014.3
20260831195710 62 253 3.0 7.0 0.00 0.08 0.08 73 1014.0
20260831194710 62 249 3.0 5.0 0.00 0.08 0.08 73 1013.8
20260831193710 63 250 3.0 6.0 0.00 0.08 0.08 73 1013.8
20260831192710 63 249 4.0 6.0 0.00 0.08 0.08 72 1013.8
20260831191711 63 247 2.0 4.0 0.00 0.08 0.08 72 1013.6
20260831190711 64 247 3.0 6.0 0.00 0.08 0.08 71 1013.5
20260831185711 64 253 3.0 6.0 0.00 0.08 0.08 70 1013.4
20260831182711 66 249 4.0 9.0 0.00 0.08 0.08 66 1012.7
20260831181711 66 246 4.0 7.0 0.00 0.08 0.08 65 1012.6
20260831180711 66 237 4.0 9.0 0.00 0.08 0.08 65 1012.1
20260831173711 67 282 5.0 13.0 0.00 0.08 0.08 63 1011.7
20260831172711 68 261 4.0 10.0 0.00 0.08 0.08 62 1011.6
20260831171711 68 328 4.0 10.0 0.00 0.08 0.08 61 1011.4
20260831170711 68 254 4.0 9.0 0.00 0.08 0.08 61 1011.2
20260831165711 69 273 6.0 14.0 0.00 0.08 0.08 59 1011.2
20260831164711 69 245 7.0 14.0 0.00 0.08 0.08 58 1011.1
20260831163711 69 310 7.0 15.0 0.00 0.08 0.08 58 1011.0
20260831162711 69 313 9.0 19.0 0.00 0.08 0.08 57 1011.0
20260831161711 70 261 5.0 11.0 0.00 0.08 0.08 59 1011.0
20260831160711 70 309 7.0 15.0 0.00 0.08 0.08 59 1011.0
20260831155713 70 262 10.0 18.0 0.00 0.08 0.08 58 1010.9
20260831154711 70 299 4.0 15.0 0.00 0.08 0.08 63 1010.5
20260831153711 70 280 7.0 14.0 0.00 0.08 0.08 62 1010.5
20260831152711 69 300 7.0 14.0 0.00 0.08 0.08 62 1010.3
20260831151712 70 256 5.0 10.0 0.00 0.08 0.08 62 1010.3
20260831150712 71 247 5.0 15.0 0.00 0.08 0.08 62 1009.9
20260831144713 70 268 7.0 16.0 0.00 0.08 0.08 63 1009.7
20260831143713 70 244 11.0 20.0 0.00 0.08 0.08 64 1009.6
20260831141712 69 188 9.0 17.0 0.00 0.08 0.08 69 1009.5
20260831134712 68 247 9.0 17.0 0.00 0.08 0.08 71 1009.3
20260831132712 69 224 9.0 19.0 0.00 0.08 0.08 68 1008.8
20260831113437 64 255 8.0 15.0 0.07 0.08 0.08 81 1008.8
20260831112937 65 245 9.0 20.0 0.06 0.07 0.07 79 1008.8
20260831112643 67 233 10.0 20.0 0.05 0.06 0.06 75 1008.9
20260831111937 68 247 9.0 18.0 0.00 0.01 0.01 70 1008.5
20260831111645 69 246 9.0 17.0 0.00 0.01 0.01 67 1008.4
20260831111438 69 249 9.0 17.0 0.00 0.01 0.01 67 1008.4
20260831110937 69 250 10.0 19.0 0.00 0.01 0.01 67 1008.3
20260831110643 69 276 10.0 19.0 0.00 0.01 0.01 66 1008.2
20260831110437 69 243 8.0 19.0 0.00 0.01 0.01 66 1008.1
20260831105643 69 233 9.0 16.0 0.00 0.01 0.01 66 1008.2
20260831105437 69 232 9.0 16.0 0.00 0.01 0.01 66 1008.1
20260831093438 66 247 8.0 17.0 0.01 0.01 0.01 76 1008.2
20260831092939 67 243 9.0 17.0 0.01 0.01 0.01 67 1008.1
20260831092643 68 242 8.0 17.0 0.00 0.00 0.00 67 1008.2
20260831092437 68 234 8.0 20.0 0.00 0.00 0.00 67 1008.1
20260831091938 68 240 9.0 20.0 0.00 0.00 0.00 67 1007.9
20260831091644 69 225 10.0 18.0 0.00 0.00 0.00 68 1008.1
20260831091437 69 248 9.0 18.0 0.00 0.00 0.00 68 1008.0
20260831090938 69 246 8.0 18.0 0.00 0.00 0.00 68 1008.0
20260831090643 69 234 8.0 19.0 0.00 0.00 0.00 68 1008.1
20260831090437 69 244 8.0 18.0 0.00 0.00 0.00 68 1008.0
20260831085938 69 236 7.0 17.0 0.00 0.00 0.00 68 1007.9
20260831085643 69 248 7.0 17.0 0.00 0.00 0.00 68 1008.1
20260831085437 69 238 8.0 19.0 0.00 0.00 0.00 68 1008.0
20260831084938 68 245 8.0 21.0 0.00 0.00 0.00 70 1008.0
20260831084644 67 253 11.0 21.0 0.00 0.00 0.00 71 1008.0
20260831084438 67 242 7.0 21.0 0.00 0.00 0.00 71 1008.0
20260831083646 66 258 6.0 12.0 0.00 0.00 0.00 72 1008.0
20260831083438 66 229 6.0 13.0 0.00 0.00 0.00 72 1008.0
20260831082938 66 229 5.0 13.0 0.00 0.00 0.00 72 1008.0
20260831082646 66 257 5.0 12.0 0.00 0.00 0.00 73 1008.0
20260831082438 66 228 5.0 12.0 0.00 0.00 0.00 73 1008.1
20260831081646 66 181 4.0 10.0 0.00 0.00 0.00 73 1008.1
20260831081438 66 236 5.0 10.0 0.00 0.00 0.00 73 1008.1
20260831080937 66 231 5.0 10.0 0.00 0.00 0.00 73 1008.1
20260831080647 66 209 4.0 10.0 0.00 0.00 0.00 73 1008.1
20260831080438 66 228 6.0 15.0 0.00 0.00 0.00 73 1008.1
20260831075938 66 232 7.0 15.0 0.00 0.00 0.00 73 1008.1
20260831075646 66 149 7.0 15.0 0.00 0.00 0.00 74 1008.1
20260831075437 66 238 6.0 15.0 0.00 0.00 0.00 74 1008.1
20260831074938 66 241 6.0 14.0 0.00 0.00 0.00 73 1008.2
20260831074646 66 269 6.0 13.0 0.00 0.00 0.00 73 1008.1
20260831073938 66 234 6.0 15.0 0.00 0.00 0.00 74 1008.1
20260831073646 66 220 6.0 14.0 0.00 0.00 0.00 75 1008.2
20260831073438 66 235 5.0 14.0 0.00 0.00 0.00 75 1008.2
20260831072938 66 236 6.0 17.0 0.00 0.00 0.00 75 1008.3
20260831072646 66 230 7.0 17.0 0.00 0.00 0.00 75 1008.2
20260831071938 66 235 6.0 15.0 0.00 0.00 0.00 76 1008.3
20260831071438 66 230 6.0 16.0 0.00 0.00 0.00 76 1008.3
20260831070938 66 236 6.0 16.0 0.00 0.00 0.00 76 1008.3